Flag for India Weather past 2 weeks in Robertsganj, Uttar Pradesh, India

Now
52 °F

Fog.


Feels Like: 51 °F
Forecast: 45 / 68 °F
Wind: 3 mph from West

Location: Varanasi / Babatpur

Current Time: Jan 31, 2015 at 12:54:29 AM

Latest Report: Jan 31, 2015 at 12:00 AM


Visibility: 1 mi

Pressure: 30.09 "Hg

Humidity: 82%

Dew point: 46 °F

Location of RobertsganjLocation

Historic Weather in Robertsganj — Graph

°F

Robertsganj temperature yesterday

Maximum temperature yesterday: 66 °F (at 4:00 PM)
Minimum temperature yesterday: 46 °F (at 7:00 AM)
Average temperature yesterday: 57 °F

Past Weeks' High & Low Weather Summary

 TemperatureHumidityPressure
High73 °F (Jan 23, 3:00 PM)100% (Jan 15, 11:00 PM)30.24 "Hg (Jan 15, 11:00 PM)
Low41 °F (Jan 21, 6:00 AM)44% (Jan 22, 3:00 PM)29.89 "Hg (Jan 22, 12:00 AM)
Average57 °F87%30.09 "Hg
* Reported Jan 15 11:00 PM — Jan 30 11:00 PM, Robertsganj, Weather by CustomWeather, © 2014

Note: Actual official high and low records may vary slightly from our data, if they occured in-between our weather recording intervals... More about our weather records

Advertising

Robertsganj weather history for previous 24 hours

 ConditionsComfort  
Time TempWeatherWind HumidityBarometerVisibility
11:00 PM
Jan 30
55 °FHaze.5 mph77%30.09 "Hg1 mi
10:00 PM57 °FHaze.3 mph77%30.09 "Hg1 mi
9:00 PM57 °FHaze.5 mph77%30.09 "Hg1 mi
8:00 PM59 °FHaze.3 mph72%30.09 "Hg1 mi
7:00 PM59 °FHaze.3 mph72%30.07 "Hg1 mi
5:00 PM66 °FHaze.5 mph60%30.07 "Hg2 mi
4:00 PM66 °FHaze.9 mph60%30.07 "Hg2 mi
2:00 PM64 °FHaze.8 mph64%30.07 "Hg2 mi
1:00 PM64 °FHaze.12 mph56%30.09 "Hg2 mi
12:00 PM63 °FHaze.8 mph64%30.12 "Hg2 mi
11:00 AM61 °FHaze.7 mph63%30.15 "Hg1 mi
10:00 AM55 °FFog.8 mph77%30.15 "Hg1 mi
9:00 AM52 °FFog.6 mph88%30.15 "Hg1 mi
8:00 AM48 °FFog.3 mph87%30.12 "Hg1 mi
7:00 AM46 °FFog.3 mph93%30.12 "Hg1 mi
6:00 AM48 °FFog.3 mph87%30.09 "Hg1 mi
5:00 AM50 °FFog.3 mph94%30.09 "Hg1 mi
4:00 AM50 °FFog.3 mph88%30.09 "Hg1 mi
12:00 AM54 °FFog.3 mph94%30.12 "Hg1 mi
Weather by CustomWeather, © 2014

See weather overviewHow to use our weather pages